Regional Weather Roundup
Issued by NWS Upton, NY

Current Version | Previous Version | Graphics & Text | Print | Product List | Glossary Off
Versions: 1 2 3 4 5 6 7 8 9 10 11 12 13 14 15 16 17 18 19 20 21 22 23 24 25 26 27 28 29 30 31 32 33 34 35 36 37 38 39 40 41 42 43 44 45 46 47 48 49 50

000
ASUS41 KOKX 231309
RWROKX

REGIONAL WEATHER ROUNDUP
NATIONAL WEATHER SERVICE NEW YORK NY
900 AM EDT FRI JUN 23 2017

NOTE: "FAIR" INDICATES FEW OR NO CLOUDS BELOW 12,000 FEET WITH NO
SIGNIFICANT WEATHER AND/OR OBSTRUCTIONS TO VISIBILITY.

NYZ071-072-176-178-NJZ106-104-231400-
NEW YORK CITY METRO AREA

CITY           SKY/WX    TMP DP  RH WIND       PRES   REMARKS
Central Park   CLOUDY    80  72  76 VRB5      29.84F
Bronx Bot Gard   N/A     82  70  65 SE2       29.83S
LaGuardia APRT CLOUDY    81  73  76 S12       29.80F
Kennedy INTL   CLOUDY    76  73  91 S7        29.83F
Breezy Point     N/A     72 N/A N/A S6          N/A
Newark/Liberty CLOUDY    81  72  74 SW12      29.81F
Teterboro      CLOUDY    80  72  76 S12       29.79F
$$

NYZ177-179-078>081-231400-
LONG ISLAND NEW YORK

CITY           SKY/WX    TMP DP  RH WIND       PRES   REMARKS
Jones Beach      N/A     70 N/A N/A S7G13       N/A
Matinecock PT  NOT AVBL
Farmingdale    NOT AVBL
MacArthur/ISP  CLOUDY    79  73  82 S9        29.82F
Shirley        PTSUNNY   78  74  87 S9        29.83F
Mt Sinai Harb    N/A     81 N/A N/A S6          N/A
Westhampton    MOSUNNY   77  70  79 SW10      29.85F
East Hampton   FAIR      76  70  81 S8        29.83F
Montauk          N/A     75  69  81 S7        29.85F
$$

NYZ052-065-067-231400-
HUDSON VALLEY

CITY           SKY/WX    TMP DP  RH WIND       PRES   REMARKS
White Plains   NOT AVBL
Larchmont Harb   N/A     72 N/A N/A S12         N/A
Croton O-T Hud   N/A     79 N/A N/A SE7         N/A
Newburgh       PTSUNNY   79  72  78 W6        29.82F
Montgomery     CLOUDY    79  71  76 SW10      29.79F
Poughkeepsie   CLOUDY    79  69  71 S8        29.78F
Albany         CLOUDY    75  66  73 S9        29.76F
$$

NJZ001-105-106-008-010-013-015-019>022-104-231400-
NEW JERSEY

CITY           SKY/WX    TMP DP  RH WIND       PRES   REMARKS
Newark/Liberty CLOUDY    81  72  74 SW12      29.81F
Teterboro      CLOUDY    80  72  76 S12       29.79F
Caldwell       CLOUDY    80  71  74 VRB3      29.80F
Somerville     CLOUDY    78  73  84 CALM      29.79F
Linden         FAIR      80  72  75 SW3       29.81F
Perth Amboy      N/A     77 N/A N/A SW5         N/A
Sussex         CLOUDY    76  72  87 SW5       29.80F
Andover          N/A     77  71  82 CALM      29.82F
Trenton        LGT RAIN  77  73  87 SW12      29.83S
Millville      LGT RAIN  77  72  84 SW13G23   29.88R
Atlantic City  CLOUDY    79  72  79 SW12      29.87
Wrightstown    LGT RAIN  75  73  94 SW12      29.81F
Toms River     CLOUDY    78  73  84 SW9       29.85F
Belmar         CLOUDY    77  72  84 S5        29.84F
$$

PAZ047>061-062-071-231400-
EASTERN PENNSYLVANIA

CITY           SKY/WX    TMP DP  RH WIND       PRES   REMARKS
Philadelphia   LGT RAIN  77  72  84 SW16G22   29.84F
Allentown      CLOUDY    76  70  82 NW3       29.82S
Scranton       MOSUNNY   75  69  81 CALM      29.80F
$$

CTZ002-004>006-009-010-012-RIZ004-006-007-MAZ004-011-015-231400-
SOUTHERN NEW ENGLAND
 IN CT

CITY           SKY/WX    TMP DP  RH WIND       PRES   REMARKS
Bradley INTL   CLOUDY    75  71  87 S8        29.80F
Hartford       CLOUDY    77  73  87 SE5       29.79F
Danbury        CLOUDY    81  71  71 SW8       29.82F
Wtrbury/Oxford PTSUNNY   79  68  69 SW5       29.84F
Bridgeport     MOSUNNY   78  70  76 SW6       29.81F
Meriden        SUNNY     79  71  76 S5        29.80F
New Haven      PTSUNNY  N/A N/A N/A S9        29.81F
Chester        FAIR      79  72  78 SW6       29.83F
Groton         PTSUNNY   74  69  85 S3        29.83F HAZE
Wilimantic     CLOUDY    76  68  76 CALM      29.82F

 IN RI

CITY           SKY/WX    TMP DP  RH WIND       PRES   REMARKS
Providence     CLOUDY    71  70  96 S5        29.83F FOG
Block Island   SUNNY     72  68  87 SW14      29.85F
Westerly       SUNNY     78  70  76 SW7       29.84F
 IN MA

CITY           SKY/WX    TMP DP  RH WIND       PRES   REMARKS
Boston         CLOUDY    73  67  81 SW6       29.81R
Worcester      LGT RAIN  74  64  71 W12       29.84S
Westfield      CLOUDY    70  68  94 CALM      29.80F
Provincetown   MOSUNNY   69  67  93 S12       29.84S
Nantucket      CLOUDY    64  64 100 SW9       29.87S
$$

ANZ330-335-338-340-345-350-353-355-231400-
COASTAL MARINE OBSERVATIONS


STATION/POSITION TIME  SKY/WX   TEMP    WIND        PRES    VSBY  WAVE
                                AIR SEA DIR/SP/G                  HT/PER
                 (UTC)          (F)     (DEG/KT/KT) (MB)    (MI)  (FT/S)
NY HARB ENTRANCE 1150            69 67  190/  8/ 10 1010.2          2/10
20 S FIRE ISLAND 1150            70 69  210/ 10/ 12 1010.3          2/ 3
GREAT SOUTH BAY  1230            73 75  230/  8/ 10   N/A
23 SSW MONTAUK P 1150            68 64              1011.2          2/ 6
15 E BARNEGAT LI 1230               65                N/A           2/ 9
HUDSON CANYON    1150            70 66  210/ 10/ 12 1011.7          2/ 9
KINGS POINT      1230            75 65  210/  8/ 10 1009.5
EXECUTION ROCKS  1245            77     180/  6/  8   N/A
CENTRAL LI SOUND NOT AVBL
EASTERN LI SOUND NOT AVBL
ROBBINS REEF     1230                   160/ 11/ 12 1010.4
$$


>>>>>>>>>>>>>>>>>>>>>>>>>>>> KEY <<<<<<<<<<<<<<<<<<<<<<<<<<<
>                                                          <
>     SKY/WX - Sky Condition/Present Weather               <
>     TMP    - Temperature in Fahrenheit                   <
>     DP     - Dew Point in Fahrenheit                     <
>     RH     - Relative Humidity in Percent                <
>     WIND   - Direction (from) and Speed in MPH           <
>     PRES   - Mean Sea Level Pressure (inches of Hg)      <
>     WCI    - Wind Chill Index                            <
>     VSB    - VISIBILITY IN MILES                         <
>     HX     - HEAT INDEX                                  <
>     TC     - TEMPERATURE IN CELSIUS                      <
>     VRB    - VARIABLE WIND DIRECTION                     <
>                                                          <
>>>>>>>>>>>>>>>>>>>>>>>>>>>> KEY <<<<<<<<<<<<<<<<<<<<<<<<<<<



USA.gov is the U.S. government's official web portal to all federal, state and local government web resources and services.